This demonstration page uses our WeatherBlox Daily Observations layout. Learn more.

38.88101, -77.10428

Hourly Observations for March 21, 2015

Temp ( °F °C ) Dew Point ( °F °C ) Humidity (%) Winds ( mph kmh ) Pressure ( in mb ) Visibility ( mi km ) Precip ( " mm )
12:45 am 00:45 Cloudy 39 4 34 1 81 81 NNW 8 13 30.15 1021 10 16.0934 0 0
12:52 am 00:52 Cloudy 39 3.9 33 0.6 79 79 NNW 8 13 30.14 1021 10 16.0934 0 0
1:04 am 01:04 Cloudy 39 4 34 1 81 81 NNW 6 9 30.15 1021 10 16.0934 0 0
1:43 am 01:43 Cloudy 39 4 34 1 81 81 NNW 7 11 30.15 1021 10 16.0934 0 0
1:52 am 01:52 Cloudy 39 3.9 33 0.6 79 79 NNW 7 11 30.13 1020 10 16.0934 0 0
2:52 am 02:52 Cloudy 39 3.9 33 0.6 79 79 ENE 8 13 30.12 1020 9 14.48406 0 0
3:52 am 03:52 Cloudy 38 3.3 32 0 79 79 NNW 5 7 30.12 1020 9 14.48406 0 0
4:52 am 04:52 Partly Cloudy 37 2.8 31 -0.6 79 79 NNW 7 11 30.11 1020 8 12.87472 0 0
5:52 am 05:52 Partly Cloudy 36 2.2 31 -0.6 82 82 NNW 6 9 30.11 1020 8 12.87472 0 0
6:52 am 06:52 Partly Cloudy 35 1.7 31 -0.6 85 85 NNW 5 7 30.1 1019 8 12.87472 0 0
6:56 am 06:56 Partly Cloudy 36 2 30 -1 81 81 NNW 6 9 30.12 1020 8 12.87472 0 0
7:52 am 07:52 Hazy 36 2.2 31 -0.6 82 82 NNW 6 9 30.12 1020 6 9.65604 0 0
8:52 am 08:52 Mostly Cloudy 39 3.9 33 0.6 79 79 Calm 30.12 1020 7 11.26538 0 0
9:52 am 09:52 Cloudy 39 3.9 33 0.6 79 79 Calm 30.13 1020 7 11.26538 0 0
10:52 am 10:52 Cloudy with Haze 42 5.6 35 1.7 76 76 SSE 6 9 30.13 1020 6 9.65604 0 0
11:52 am 11:52 Cloudy with Haze 45 7.2 37 2.8 74 74 S 8 13 30.12 1020 6 9.65604 0 0
12:52 pm 12:52 Partly Cloudy 49 9.4 38 3.3 66 66 S 7 11 30.09 1019 10 16.0934 0 0
1:52 pm 13:52 Mostly Cloudy 54 12.2 41 5 62 62 S 10 17 30.04 1017 10 16.0934 0 0
2:52 pm 14:52 Partly Cloudy 56 13.3 41 5 57 57 S 12 19 30 1016 10 16.0934 0 0
3:52 pm 15:52 Mostly Sunny 60 15.6 42 5.6 52 52 S 10 17 29.97 1015 10 16.0934 0 0
4:52 pm 16:52 Mostly Sunny 60 15.6 41 5 50 50 SSE 12 19 29.95 1014 10 16.0934 0 0
5:52 pm 17:52 Partly Cloudy 60 15.6 42 5.6 52 52 S 12 19 29.94 1014 10 16.0934 0 0
6:52 pm 18:52 Mostly Cloudy 58 14.4 41 5 53 53 S 7 11 29.93 1014 10 16.0934 0 0
7:52 pm 19:52 Mostly Cloudy 59 15 39 3.9 48 48 SW 5 7 29.95 1014 10 16.0934 0 0
8:52 pm 20:52 Mostly Cloudy 56 13.3 41 5 57 57 Calm 29.97 1015 10 16.0934 0 0
9:44 pm 21:44 Partly Cloudy 57 14 39 4 51 51 W 5 7 29.97 1015 10 16.0934 0 0
9:52 pm 21:52 Partly Cloudy 59 15 39 3.9 48 48 NW 5 7 29.98 1015 10 16.0934 0 0
10:52 pm 22:52 Partly Cloudy 51 10.6 42 5.6 71 71 S 5 7 29.98 1015 10 16.0934 0 0
11:52 pm 23:52 Partly Cloudy 50 10 41 5 71 71 SW 5 7 29.98 1015 10 16.0934 0 0

Powered by AerisWeather